User: anonymous   Login
Location: Newark
(25.4800°N, 85.7200°E)
Time: 07:32:15
(UTC+00:00)
Language:

Vanguard 2 Rocket - Orbit

View from above orbital plane
View from above orbital plane
View from above satellite
View from above satellite

Ground track
Ground track

The orbit data is extracted from the following two-line orbital elements,

1    12U 59001B   19237.64745648  .00000215  00000-0  11407-3 0  9998
2    12  32.9088 309.4169 1667241 315.4831  32.3033 11.44291178488540
Epoch (UTC): 25 August 2019 15:32:20
Eccentricity: 0.1667241
inclination: 32.9088°
perigee height: 553 km
apogee height: 3327 km
right ascension of ascending node: 309.4169°
argument of perigee: 315.4831°
revolutions per day: 11.44291178
mean anomaly at epoch: 32.3033°
orbit number at epoch: 48854

The dashed part of the orbit path shows where the satellite is in the earth's shadow,  

DLR